Regional Weather Roundup
Issued by NWS Goodland, KS

Home | Current Version | Previous Version | Text Only | Print | Product List | Glossary On
Versions: 1 2 3 4 5 6 7 8 9 10 11 12 13 14 15 16 17 18 19 20 21 22 23 24 25 26 27 28 29 30 31 32 33 34 35 36 37 38 39 40 41 42 43 44 45 46 47 48 49 50
000
ASUS43 KGLD 102059
RWRGLD

GOODLAND FORECAST AREA HOURLY WEATHER ROUNDUP
NATIONAL WEATHER SERVICE GOODLAND KS
200 PM MST WED FEB 10 2016

...OFFICIAL OBSERVATIONS...

CITY           SKY/WX    TMP DP  RH WIND       PRES   REMARKS
GOODLAND KS    SUNNY     59  28  30 NW12      30.02F
HILL CITY KS   SUNNY     56  31  38 W15G22    29.94F
IMPERIAL NEB   SUNNY     51  29  42 NW14G24   29.97F
MCCOOK NEB     SUNNY     51  30  44 W14G23    29.94S
AKRON CO       SUNNY     54  29  38 W6        30.04F
BURLINGTON CO  SUNNY     53  30  41 NW10      30.03F
LIMON CO       SUNNY     47  27  45 W9        30.10F
$$

...UNOFFICIAL OBSERVATIONS...

CITY           SKY/WX    TMP DP  RH WIND       PRES   REMARKS
$$



USA.gov is the U.S. government's official web portal to all federal, state and local government web resources and services.